{"data":{"norad_id":51983,"intl_designator":"2022-025AD","name":"STARLINK-3655","alt_names":[],"object_type":"PAYLOAD","status":"ACTIVE","operator":null,"country":"US","launch_date":"2022-03-09","launch_site_code":"AFETR","launch_vehicle":null,"mission":null,"orbit_class":"UNKNOWN","rcs_meters":null,"size_class":null,"mass_kg":null,"dimensions":null,"purposes":["comms"],"wikipedia_slug":null,"has_3d_model":false,"image_url":null,"decayed_at":null,"tle_current":{"epoch":"2026-05-25T01:15:52.899840Z","epoch_age_seconds":66457,"freshness":"FRESH","line1":"1 51983U 22025AD  26145.05269560 -.00000502  00000+0 -13437-4 0  9998","line2":"2 51983  53.2133  56.3196 0001564  87.5769 272.5402 15.08840605232582","mean_motion":15.08840605,"eccentricity":0.0001564,"inclination_deg":53.2133,"raan_deg":56.3196,"arg_perigee_deg":87.5769,"mean_anomaly_deg":272.5402,"bstar":-1.3437e-5,"rev_number":23258,"period_min":95.437516410158,"perigee_km":538.65958351814,"apogee_km":540.82349592537,"semimajor_km":6917.8785397218,"source":"CELESTRAK","updated_at":"2026-05-25T13:38:16.995767Z"}}}